This is the latest recevied weather packets stored in our database for station/object W1REE. If no packets are shown the sender has not sent any weather packets the latest 10 day(s).
| Time | Temp. | Humidity | Pressure | Rain* | Wind** | Luminosity | Snow |
|---|---|---|---|---|---|---|---|
| 1777580066 | 5.56° C | 76% | 1021.8 hPa | 0 mm | - | 148 W/m² | - |
| 1777579763 | 5.56° C | 76% | 1021.9 hPa | 0 mm | - | 202 W/m² | - |
| 1777579155 | 5° C | 76% | 1021.8 hPa | 0 mm | - | 262 W/m² | - |
| 1777578851 | 5° C | 80% | 1022 hPa | 0 mm | - | 198 W/m² | - |
| 1777578546 | 5° C | 77% | 1022.2 hPa | 0 mm | - | 169 W/m² | - |
| 1777578241 | 5° C | 75% | 1021.9 hPa | 0 mm | - | 141 W/m² | - |
| 1777577936 | 5° C | 73% | 1021.9 hPa | 0 mm | - | 121 W/m² | - |
| 1777577632 | 5° C | 72% | 1021.8 hPa | 0 mm | - | 111 W/m² | - |
| 1777577330 | 5° C | 73% | 1021.9 hPa | 0 mm | - | 97 W/m² | - |
| 1777576723 | 5° C | 73% | 1021.8 hPa | 0 mm | - | 117 W/m² | - |
| 1777576422 | 5° C | 74% | 1021.8 hPa | 0 mm | - | 92 W/m² | - |
| 1777575814 | 5° C | 73% | 1022 hPa | 0 mm | - | 89 W/m² | - |
| 1777571261 | 5.56° C | 73% | 1022.4 hPa | 0 mm | - | 179 W/m² | - |
| 1777568831 | 5° C | 75% | 1022.6 hPa | 0 mm | - | 121 W/m² | - |
| 1777564281 | 4.44° C | 84% | 1022.3 hPa | 0 mm | - | 230 W/m² | - |
| 1777563368 | 4.44° C | 85% | 1022.3 hPa | 0 mm | - | 134 W/m² | - |
| 1777563064 | 4.44° C | 86% | 1022.4 hPa | 0 mm | - | 130 W/m² | - |
| 1777562760 | 4.44° C | 86% | 1022.3 hPa | 0 mm | - | 168 W/m² | - |
| 1777562458 | 4.44° C | 87% | 1022.4 hPa | 0 mm | - | 162 W/m² | - |
| 1777561853 | 4.44° C | 89% | 1022.3 hPa | 0 mm | - | 126 W/m² | - |
| 1777560339 | 4.44° C | 91% | 1022.4 hPa | 0 mm | - | 203 W/m² | - |
| 1777559732 | 3.89° C | 90% | 1022.5 hPa | 0 mm | - | 123 W/m² | - |
| 1777558826 | 3.33° C | 95% | 1022.4 hPa | 0 mm | - | 163 W/m² | - |
| 1777558522 | 3.33° C | 95% | 1022.5 hPa | 0 mm | - | 122 W/m² | - |
| 1777558219 | 3.33° C | 95% | 1022.6 hPa | 0 mm | - | 97 W/m² | - |
* Rain latest hour (hover to see other rain measurements)
** Current wind speed in m/s (hover to see current wind gust speed)